Eau Claire, WI

6:35 PM CDT on September 30, 2016 (GMT -0500)
Chippewa Valley Regional

Weather History for KEAU - July, 2012

Change the Weather History Date:

Friday, July 20, 2012

  Actual Average Record
Temperature  
Mean Temperature 71 °F 72 °F  
Max Temperature 84 °F 83 °F 102 °F (1932)
Min Temperature 58 °F 60 °F 44 °F (1966)
Degree Days  
Heating Degree Days 0 0  
Month to date heating degree days 0 2  
Since 1 June heating degree days 28 64  
Since 1 July heating degree days 0 2  
Cooling Degree Days 6 7  
Month to date cooling degree days 257 139  
Year to date cooling degree days 493 291  
Since 1 June cooling degree days 423 259  
Growing Degree Days 20 (Base 50)    
Moisture  
Dew Point 60 °F    
Average Humidity 68    
Maximum Humidity 90    
Minimum Humidity 45    
Precipitation  
Precipitation 0.08 in 0.12 in 1.55 in (1987)
Month to date precipitation 1.24 2.48  
Year to date precipitation 16.74 16.25  
Snow  
Snow 0.00 in 0.00 in 0.00 in ()
Month to date snowfall 0.0 0.0  
Since 1 June snowfall 0.0 0.0  
Since 1 July snowfall 0.0 0.0  
Snow Depth 0.00 in    
Sea Level Pressure  
Sea Level Pressure 30.08 in    
Wind  
Wind Speed 5 mph (SSW)    
Max Wind Speed 14 mph    
Max Gust Speed 18 mph    
Visibility 10 miles    
Events Rain , Thunderstorm    
T = Trace of Precipitation, MM = Missing Value Source: NWS Daily Summary

Daily Weather History Graph

Daily Weather History Graph

Search for Another Location

Airport or City:

Trip Planner

Search our weather history database for the weather conditions in past years. The results will help you decide how hot, cold, wet, or windy it might be!

Date:

Astronomy

Jul. 20, 2012 Rise Set
Actual Time 5:39 AM CDT 8:44 PM CDT
Civil Twilight 5:04 AM CDT 9:19 PM CDT
Nautical Twilight 4:18 AM CDT 10:04 PM CDT
Astronomical Twilight 3:24 AM CDT 10:58 PM CDT
Moon 7:23 AM CDT (7/20) 9:16 PM CDT (7/20)
Length of Visible Light 16h 15m
Length of Day
15h 05m
Waxing Crescent, 3% of the Moon is Illuminated
Jul 20
Waxing Crescent
Jul 26
First Quarter
Aug 1
Full
Aug 9
Last Quarter
Aug 17
New

Hourly Weather History & Observations

Time (CDT) Temp. Heat Index Dew Point Humidity Pressure Visibility Wind Dir Wind Speed Gust Speed Precip Events Conditions
12:56 AM 66.9 °F - 57.0 °F 70% 30.08 in 10.0 mi South 4.6 mph - N/A   Clear
1:56 AM 64.9 °F - 55.9 °F 73% 30.10 in 10.0 mi Calm Calm - N/A   Clear
2:56 AM 62.1 °F - 55.9 °F 80% 30.10 in 10.0 mi Calm Calm - N/A   Clear
3:56 AM 60.1 °F - 55.9 °F 86% 30.10 in 10.0 mi ENE 4.6 mph - N/A   Clear
4:56 AM 60.1 °F - 57.0 °F 90% 30.10 in 10.0 mi Calm Calm - N/A   Clear
5:56 AM 59.0 °F - 55.0 °F 87% 30.11 in 10.0 mi Calm Calm - N/A   Clear
6:56 AM 62.1 °F - 57.0 °F 84% 30.12 in 10.0 mi Calm Calm - N/A   Clear
7:56 AM 66.0 °F - 55.9 °F 70% 30.14 in 10.0 mi SE 4.6 mph - N/A   Clear
8:56 AM 68.0 °F - 57.0 °F 68% 30.14 in 10.0 mi Variable 4.6 mph - N/A   Clear
9:56 AM 73.0 °F - 57.0 °F 57% 30.13 in 10.0 mi South 5.8 mph - N/A   Clear
10:56 AM 77.0 °F - 57.0 °F 50% 30.13 in 10.0 mi South 8.1 mph - N/A   Clear
11:56 AM 79.0 °F - 57.9 °F 48% 30.13 in 10.0 mi SSW 10.4 mph - N/A   Clear
12:56 PM 80.1 °F 80.6 °F 57.9 °F 47% 30.12 in 10.0 mi South 4.6 mph - N/A   Scattered Clouds
1:44 PM 78.8 °F - 60.8 °F 54% 30.12 in 9.0 mi SSW 4.6 mph - 0.01 in Rain , Thunderstorm Light Rain
1:56 PM 75.9 °F - 62.1 °F 62% 30.13 in 10.0 mi West 8.1 mph - 0.01 in Rain , Thunderstorm Light Thunderstorms and Rain
2:41 PM 73.4 °F - 68.0 °F 83% 30.08 in 10.0 mi South 8.1 mph - 0.07 in   Partly Cloudy
2:56 PM 77.0 °F - 66.0 °F 69% 30.07 in 10.0 mi Calm Calm - 0.07 in   Clear
3:56 PM 81.0 °F 81.7 °F 61.0 °F 50% 30.04 in 10.0 mi South 9.2 mph - N/A   Clear
4:56 PM 82.9 °F 83.7 °F 62.1 °F 49% 30.03 in 10.0 mi SW 11.5 mph - N/A   Clear
5:56 PM 81.0 °F 81.9 °F 62.1 °F 52% 30.04 in 10.0 mi SW 9.2 mph - N/A   Clear
6:56 PM 81.0 °F 81.6 °F 60.1 °F 49% 30.03 in 10.0 mi SW 6.9 mph - N/A   Clear
7:56 PM 79.0 °F - 62.1 °F 56% 30.03 in 10.0 mi SSW 5.8 mph - N/A   Clear
8:56 PM 77.0 °F - 63.0 °F 62% 30.01 in 10.0 mi South 5.8 mph - N/A   Clear
9:56 PM 75.0 °F - 62.1 °F 64% 30.02 in 10.0 mi South 5.8 mph - N/A   Clear
10:56 PM 73.0 °F - 62.1 °F 68% 30.01 in 10.0 mi SSW 3.5 mph - N/A   Clear
11:56 PM 70.0 °F - 64.0 °F 81% 30.03 in 10.0 mi SSW 3.5 mph - N/A   Partly Cloudy